USGS - science for a changing world

Kansas Water Science Center

Jump to content

Jump back to navigation

Current Streamflow Conditions

Welcome to the U.S. Geological Survey (USGS) Web page for the water resources of Kansas. Here you'll find information on Kansas's rivers and streams. You'll also find information about groundwater, water quality, and many other topics. The USGS operates the most extensive satellite network of stream-gaging stations in the state, many of which form the backbone of flood-warning systems.

The Kansas Water Science Center provides current ("real-time") stream stage in Kansas and streamflow, water-quality, and groundwater levels for over 200 sites.
The USGS provides National ("real-time") stream stage and streamflow, water-quality, and groundwater levels for over 7000 sites.

Of Current Interest

USGS Open-File Report: Logistic and linear regression model documentation for statistical relations between continuous real-time and discrete water-quality constituents in the Kansas River, Kansas

Data Release:Phytoplankton data for Cheney Reservoir near Cheney, Kansas, June 2001 through November 2015 available on ScienceBase

USGS Fact Sheet: Hydrologic Conditions in Kansas, water year 2015

Data Series: Irrigation water use in Kansas, 2013

USGS WaterAlert Service Turn Around Don't Drown

Now you can receive instant, customized updates about water conditions by subscribing to WaterAlert, a new service from the U.S. Geological Survey. WaterAlert allows you to receive daily or hourly updates about current conditions in rivers, lakes and groundwater when they match conditions of concern to you.

Kansas Earthquakes - Last 30 days

  1. 2.6 25km W of Medicine Lodge, Kansas 2016-05-24 08:50:56 CDT
  2. 2.22 18km SSE of Anthony, Kansas 2016-05-19 20:45:49 CDT
  3. 2.6 16km NW of Medford, Oklahoma 2016-05-18 16:35:46 CDT
  4. 1.77 6km S of Anthony, Kansas 2016-05-18 02:37:29 CDT
  5. 1.99 23km SSW of Anthony, Kansas 2016-05-14 14:35:58 CDT
  6. 2.8 11km WNW of Caldwell, Kansas 2016-05-14 14:04:36 CDT
  7. 2.5 5km SSW of Cheney, Kansas 2016-05-14 01:38:34 CDT
  8. 3 22km SSE of Anthony, Kansas 2016-05-12 10:26:43 CDT
  9. 2.06 14km ENE of Anthony, Kansas 2016-05-11 00:31:25 CDT
  10. 2.29 11km WNW of Caldwell, Kansas 2016-05-10 21:13:40 CDT
  11. 2.02 8km NE of Anthony, Kansas 2016-05-10 08:41:50 CDT
  12. 1.98 4km NNE of Anthony, Kansas 2016-05-07 11:34:31 CDT
  13. 1.9 4km NNE of Anthony, Kansas 2016-05-06 08:25:00 CDT
  14. 1.91 2km S of Anthony, Kansas 2016-05-04 17:23:55 CDT
  15. 2.6 19km N of Caldwell, Kansas 2016-05-03 15:20:55 CDT
  16. 2.04 19km S of Conway Springs, Kansas 2016-05-03 14:45:41 CDT
  17. 2.4 7km SE of Harper, Kansas 2016-05-01 22:04:47 CDT
  18. 3.4 14km ENE of Anthony, Kansas 2016-05-01 00:37:39 CDT
  19. 2.05 11km W of Caldwell, Kansas 2016-04-29 18:00:30 CDT
  20. 1.83 11km W of Caldwell, Kansas 2016-04-28 20:06:36 CDT

Highlighted Publications

The Kansas Water Science Center produces publications about water resources.   Search icon Search our publications

Total cylindrospermopsins, microcystins/nodularins, and saxitoxins data for the 2007 United States Environmental Protection Agency National Lake Assessment Challenges for mapping cyanotoxin patterns from remote sensing of cyanobacteria Seasonal patterns in carbon dioxide in 15 mid-continent (USA) reservoirs Logistic and linear regression model documentation for statistical relations between continuous real-time and discrete water-quality constituents in the Kansas River, Kansas, July 2012 through June 2015 Hydrologic Conditions in Kansas, water year 2015 Irrigation water use in Kansas, 2013 Streamflow characteristics and trends at selected streamgages in southwest and south-central Kansas Experimental manipulation of TN:TP ratiossuppress cyanobacterial biovolume and microcystinconcentration in large-scale <i>in situ</i> mesocosms Agencies collaborate, develop a cyanobacteria assessment network Public-supply water use in Kansas, 2013 Groundwater-level and storage-volume changes in the <i>Equus</i> Beds aquifer near Wichita, Kansas, predevelopment through January 2015 Water-level changes and change in water in storage in the High Plains aquifer, predevelopment to 2013 and 2011-13
07147800: Flow=24200cfs,Stage=22.70ft,Floodstage=18ft,2016-05-27 00:00,High,WALNUT R AT WINFIELD, KS 06911900: Flow=2740cfs,Stage=12.65ft,Floodstage=19ft,2016-05-26 23:00,High,DRAGOON C NR BURLINGAME, KS 06893500: Flow=4750cfs,Stage=16.32ft,Floodstage=34ft,2016-05-26 23:45,High,Blue River at Kansas City, MO 06893300: Flow=1800cfs,Stage=9.98ft,Floodstage=14ft,2016-05-26 23:15,High,INDIAN C AT OVERLAND PARK, KS 06891500: Flow=4490cfs,Stage=21.55ft,Floodstage=23ft,2016-05-26 23:45,High,WAKARUSA R NR LAWRENCE, KS 06889500: Flow=13200cfs,Stage=19.46ft,Floodstage=29ft,2016-05-27 00:00,High,SOLDIER C NR TOPEKA, KS 06889200: Flow=6600cfs,Stage=26.35ft,Floodstage=26ft,2016-05-26 23:45,High,SOLDIER C NR DELIA, KS 06888500: Flow=5870cfs,Stage=15.13ft,Floodstage=21ft,2016-05-26 23:45,High,MILL C NR PAXICO, KS 06888000: Flow=7430cfs,Stage=22.46ft,2016-05-26 23:45,High,VERMILLION C NR WAMEGO, KS 06879650: Flow=291cfs,Stage=6.10ft,2016-05-26 23:45,High,KINGS C NR MANHATTAN, KS 06878000: Flow=2660cfs,Stage=18.77ft,Floodstage=19ft,2016-05-26 23:45,High,CHAPMAN C NR CHAPMAN, KS 07186000: Flow=7360cfs,Stage=10.32ft,Floodstage=19ft,2016-05-26 23:30,>90,Spring River near Waco, MO 07182250: Flow=7010cfs,Stage=21.71ft,Floodstage=32ft,2016-05-27 00:00,>90,COTTONWOOD R NR PLYMOUTH, KS 07180500: Flow=274cfs,Stage=5.55ft,2016-05-26 23:15,>90,CEDAR C NR CEDAR POINT, KS 07172000: Flow=2290cfs,Stage=4.25ft,2016-05-27 00:00,>90,CANEY R NR ELGIN, KS 07169800: Flow=2610cfs,Stage=7.58ft,2016-05-26 23:00,>90,ELK R AT ELK FALLS, KS 07167500: Flow=331cfs,Stage=4.22ft,2016-05-26 23:15,>90,OTTER C AT CLIMAX, KS 07146500: Flow=14200cfs,Stage=10.45ft,Floodstage=11ft,2016-05-27 00:00,>90,ARKANSAS R AT ARKANSAS CITY, KS 07145500: Flow=2190cfs,Stage=7.57ft,Floodstage=17ft,2016-05-27 00:00,>90,NINNESCAH R NR PECK, KS 07144910: Flow=145cfs,Stage=5.16ft,Floodstage=9ft,2016-05-27 00:00,>90,SF NINNESCAH R NR PRATT, KS 07144780: Flow=775cfs,Stage=9.31ft,2016-05-26 23:30,>90,NF NINNESCAH R AB CHENEY RE, KS 07141900: Flow=235cfs,Stage=8.12ft,Floodstage=24ft,2016-05-26 23:45,>90,WALNUT C AT ALBERT, KS 07141780: Flow=452cfs,Stage=14.42ft,Floodstage=29ft,2016-05-26 23:15,>90,WALNUT C AT NEKOMA, KS 06915000: Flow=661cfs,Stage=5.37ft,2016-05-26 23:30,>90,BIG BULL C NR HILLSDALE, KS 06910800: Flow=2800cfs,Stage=13.97ft,Floodstage=19ft,2016-05-26 23:45,>90,MARAIS DES CYGNES R NR READING, KS 06893000: Flow=152000cfs,Stage=24.24ft,Floodstage=32ft,2016-05-26 23:30,>90,Missouri River at Kansas City, MO 06892350: Flow=43700cfs,Stage=15.23ft,Floodstage=26ft,2016-05-26 23:45,>90,KANSAS R AT DESOTO, KS 06892000: Flow=6120cfs,Stage=22.37ft,Floodstage=23ft,2016-05-26 23:45,>90,STRANGER C NR TONGANOXIE, KS 06891000: Flow=39800cfs,Stage=12.57ft,Floodstage=17ft,2016-05-26 23:30,>90,KANSAS R AT LECOMPTON, KS 06890100: Flow=3190cfs,Stage=11.64ft,Floodstage=27ft,2016-05-26 23:45,>90,DELAWARE R NR MUSCOTAH, KS 06885500: Flow=1170cfs,Stage=8.94ft,Floodstage=19ft,2016-05-26 23:30,>90,BLACK VERMILLION R NR FRANKFORT, KS 06884200: Flow=1320cfs,Stage=9.88ft,Floodstage=18ft,2016-05-26 23:45,>90,MILL C AT WASHINGTON, KS 06876900: Flow=6870cfs,Stage=25.19ft,Floodstage=24ft,2016-05-27 00:00,>90,SOLOMON R AT NILES, KS 06876700: Flow=1320cfs,Stage=17.26ft,Floodstage=18ft,2016-05-26 23:45,>90,SALT C NR ADA, KS 06873000: Flow=241cfs,Stage=4.12ft,Floodstage=7ft,2016-05-26 23:15,>90,SF SOLOMON R AB WEBSTER RE, KS 06869500: Flow=2290cfs,Stage=22.48ft,Floodstage=25ft,2016-05-26 23:30,>90,SALINE R AT TESCOTT, KS 06867000: Flow=1820cfs,Stage=14.48ft,Floodstage=18ft,2016-05-26 23:30,>90,SALINE R NR RUSSELL, KS 06866900: Flow=58cfs,Stage=4.36ft,Floodstage=13ft,2016-05-26 23:00,>90,SALINE R NR WAKEENEY, KS 06856600: Flow=4940cfs,Stage=13.68ft,Floodstage=15ft,2016-05-27 00:00,>90,REPUBLICAN R AT CLAY CENTER, KS 06824000: Flow=20cfs,Stage=1.62ft,2016-05-26 22:45,>90,Rock Creek at Parks, Nebr. 07156900: Flow=17cfs,Stage=2.22ft,Floodstage=5ft,2016-05-26 23:00,<10,Cimarron River near Forgan, OK 07137000: Flow=0.00cfs,Stage=9.18ft,2016-05-26 23:45,<10,FRONTIER DITCH NR COOLIDGE, KS 06821500: Flow=0.74cfs,Stage=5.07ft,Floodstage=12ft,2016-05-26 22:30,<10,Arikaree River at Haigler, Nebr. 07188000: Flow=11800cfs,Stage=12.70ft,Floodstage=20ft,2016-05-26 23:00,76-90,Spring River near Quapaw, OK 07179730: Flow=2440cfs,Stage=12.17ft,Floodstage=26ft,2016-05-26 23:15,76-90,NEOSHO R NR AMERICUS, KS 07170500: Flow=6850cfs,Stage=14.08ft,Floodstage=30ft,2016-05-27 00:00,76-90,VERDIGRIS R AT INDEPENDENCE, KS 07169500: Flow=2300cfs,Stage=8.36ft,Floodstage=17ft,2016-05-26 23:00,76-90,FALL R AT FREDONIA, KS 07147070: Flow=938cfs,Stage=5.64ft,2016-05-26 23:30,76-90,WHITEWATER R AT TOWANDA, KS 07145700: Flow=174cfs,Stage=6.84ft,Floodstage=19ft,2016-05-26 23:45,76-90,SLATE C AT WELLINGTON, KS 07145200: Flow=527cfs,Stage=4.74ft,Floodstage=8ft,2016-05-27 00:00,76-90,SF NINNESCAH R NR MURDOCK, KS 07144550: Flow=3980cfs,Stage=4.85ft,Floodstage=12ft,2016-05-27 00:00,76-90,ARKANSAS R AT DERBY, KS 07144300: Flow=2910cfs,Stage=6.92ft,2016-05-26 23:45,76-90,ARKANSAS R AT WICHITA, KS 07144200: Flow=1120cfs,Stage=5.84ft,2016-05-26 23:00,76-90,L ARKANSAS R AT VALLEY CENTER, KS 07143665: Flow=1120cfs,Stage=8.72ft,Floodstage=22ft,2016-05-26 23:15,76-90,L ARKANSAS R AT ALTA MILLS, KS 07143330: Flow=916cfs,Stage=4.47ft,Floodstage=10ft,2016-05-26 23:30,76-90,ARKANSAS R NR HUTCHINSON, KS 07143300: Flow=264cfs,Stage=9.35ft,Floodstage=18ft,2016-05-26 23:30,76-90,COW C NR LYONS, KS 06913500: Flow=4750cfs,Stage=16.28ft,Floodstage=31ft,2016-05-26 23:30,76-90,MARAIS DES CYGNES R NR OTTAWA, KS 06913000: Flow=2950cfs,Stage=10.58ft,Floodstage=20ft,2016-05-26 23:30,76-90,MARAIS DES CYGNES R NR POMONA, KS 06912500: Flow=712cfs,Stage=5.66ft,2016-05-26 23:45,76-90,HUNDRED AND TEN MILE C NR QUENEMO, KS 06911000: Flow=432cfs,Stage=4.94ft,2016-05-26 23:45,76-90,MARAIS DES CYGNES R AT MELVERN, KS 06890900: Flow=1410cfs,Stage=37.11ft,2016-05-26 23:45,76-90,DELAWARE R AT PERRY, KS 06889000: Flow=23400cfs,Stage=13.88ft,Floodstage=26ft,2016-05-26 23:30,76-90,KANSAS R AT TOPEKA, KS 06888350: Flow=27800cfs,Stage=14.05ft,Floodstage=20ft,2016-05-26 23:30,76-90,KANSAS R NR BELVUE, KS 06887000: Flow=8690cfs,Stage=9.65ft,Floodstage=19ft,2016-05-26 23:00,76-90,BIG BLUE R NR MANHATTAN, KS 06884400: Flow=2340cfs,Stage=7.59ft,Floodstage=21ft,2016-05-26 23:30,76-90,L BLUE R NR BARNES, KS 06879100: Flow=9040cfs,Stage=10.88ft,Floodstage=21ft,2016-05-26 23:30,76-90,KANSAS R AT FORT RILEY, KS 06877600: Flow=5880cfs,Stage=16.44ft,Floodstage=26ft,2016-05-26 23:45,76-90,SMOKY HILL R AT ENTERPRISE, KS 06876000: Flow=578cfs,Stage=6.42ft,2016-05-26 23:45,76-90,SOLOMON R AT BELOIT, KS 06875900: Flow=741cfs,Stage=10.91ft,Floodstage=21ft,2016-05-26 23:30,76-90,SOLOMON R NR GLEN ELDER, KS 06874000: Flow=410cfs,Stage=7.91ft,Floodstage=14ft,2016-05-26 23:30,76-90,SF SOLOMON R AT OSBORNE, KS 06873460: Flow=128cfs,Stage=7.08ft,Floodstage=12ft,2016-05-26 23:30,76-90,SF SOLOMON R AT WOODSTON, KS 06871500: Flow=30cfs,Stage=4.45ft,Floodstage=9ft,2016-05-26 23:45,76-90,BOW C NR STOCKTON, KS 06866000: Flow=400cfs,Stage=8.73ft,Floodstage=21ft,2016-05-26 23:30,76-90,SMOKY HILL R AT LINDSBORG, KS 06865500: Flow=492cfs,Stage=6.09ft,2016-05-26 23:30,76-90,SMOKY HILL R NR LANGLEY, KS 06864500: Flow=590cfs,Stage=4.36ft,Floodstage=20ft,2016-05-26 23:30,76-90,SMOKY HILL R AT ELLSWORTH, KS 06857100: Flow=2270cfs,Stage=8.54ft,2016-05-26 23:30,76-90,REPUBLICAN R AT JUNCTION CITY, KS 06856000: Flow=1340cfs,Stage=7.42ft,Floodstage=15ft,2016-05-26 23:30,76-90,REPUBLICAN R AT CONCORDIA, KS 06853800: Flow=32cfs,Stage=2.36ft,Floodstage=16ft,2016-05-26 23:45,76-90,WHITE ROCK C NR BURR OAK, KS 06818000: Flow=81200cfs,Stage=15.07ft,Floodstage=17ft,2016-05-26 23:30,76-90,Missouri River at St. Joseph, MO 06815000: Flow=1270cfs,Stage=6.83ft,Floodstage=27ft,2016-05-26 23:45,76-90,Big Nemaha River at Falls City, Nebr. 06814000: Flow=237cfs,Stage=3.12ft,Floodstage=21ft,2016-05-26 23:45,76-90,TURKEY C NR SENECA, KS 06813500: Flow=76900cfs,Stage=15.49ft,Floodstage=17ft,2016-05-26 23:30,76-90,Missouri River at Rulo, NE 07142575: Flow=16cfs,Stage=12.01ft,Floodstage=17ft,2016-05-26 23:30,10-24,RATTLESNAKE C NR ZENITH, KS 07142300: Flow=2.4cfs,Stage=4.11ft,Floodstage=9ft,2016-05-26 23:00,10-24,RATTLESNAKE C NR MACKSVILLE, KS 06860000: Flow=0.95cfs,Stage=4.24ft,Floodstage=9ft,2016-05-26 23:30,10-24,SMOKY HILL R AT ELKADER, KS 06823500: Flow=2.9cfs,Stage=1.10ft,Floodstage=11ft,2016-05-26 22:45,10-24,Buffalo Creek near Haigler, Nebr. 07185000: Flow=4530cfs,Stage=5.44ft,Floodstage=15ft,2016-05-26 23:30,25-75,Neosho River near Commerce, OK 07184000: Flow=144cfs,Stage=2.45ft,Floodstage=12ft,2016-05-26 23:45,25-75,LIGHTNING C NR MCCUNE, KS 07183500: Flow=5580cfs,Stage=11.55ft,Floodstage=21ft,2016-05-26 23:00,25-75,NEOSHO R NR PARSONS, KS 07183000: Flow=3640cfs,Stage=8.85ft,Floodstage=15ft,2016-05-26 23:00,25-75,NEOSHO R NR IOLA, KS 07182510: Flow=2400cfs,Stage=9.34ft,Floodstage=27ft,2016-05-26 23:15,25-75,NEOSHO R AT BURLINGTON, KS 07180400: Flow=370cfs,2016-05-26 23:45,Stage=4.05ft,2016-05-27 00:00:00,Floodstage=22ft,25-75,COTTONWOOD R NR FLORENCE, KS 07179795: Flow=21cfs,Stage=4.93ft,2016-05-26 23:30,25-75,N COTTONWOOD R BL MARION LK, KS 07179500: Flow=158cfs,Stage=8.94ft,2016-05-27 00:00,25-75,NEOSHO R AT COUNCIL GROVE, KS 07166500: Flow=1910cfs,Stage=6.69ft,Floodstage=19ft,2016-05-26 23:45,25-75,VERDIGRIS R NR ALTOONA, KS 07157500: Flow=8.1cfs,Stage=2.69ft,Floodstage=6.5ft,2016-05-26 23:30,25-75,CROOKED C NR ENGLEWOOD, KS 07151500: Flow=303cfs,Stage=2.89ft,Floodstage=10ft,2016-05-27 00:00,25-75,CHIKASKIA R NR CORBIN, KS 07149000: Flow=129cfs,Stage=1.23ft,Floodstage=10ft,2016-05-26 23:30,25-75,MEDICINE LODGE R NR KIOWA, KS 07141300: Flow=16cfs,Stage=1.41ft,Floodstage=12ft,2016-05-26 23:30,25-75,ARKANSAS R AT GREAT BEND, KS 07141200: Flow=30cfs,Stage=8.43ft,Floodstage=31ft,2016-05-26 23:30,25-75,PAWNEE R AT ROZEL, KS 07138000: Flow=118cfs,Stage=4.32ft,Floodstage=10ft,2016-05-26 23:15,25-75,ARKANSAS R AT SYRACUSE, KS 07137500: Flow=123cfs,Stage=2.96ft,Floodstage=8ft,2016-05-26 23:15,25-75,ARKANSAS R NR COOLIDGE, KS 06917500: Flow=244cfs,Stage=10.19ft,Floodstage=38ft,2016-05-26 23:30,25-75,MARMATON R NR FORT SCOTT, KS 06917000: Flow=66cfs,Stage=3.84ft,Floodstage=22ft,2016-05-26 23:15,25-75,L OSAGE R AT FULTON, KS 06916600: Flow=5730cfs,Stage=12.96ft,Floodstage=27ft,2016-05-26 23:45,25-75,MARAIS DES CYGNES R NR KS-MO ST LINE, KS 06915800: Flow=6480cfs,Stage=13.37ft,Floodstage=25ft,2016-05-26 23:15,25-75,MARAIS DES CYGNES R AT LA CYGNE, KS 06884025: Flow=436cfs,Stage=2.75ft,Floodstage=19ft,2016-05-26 23:00,25-75,Little Blue River at Hollenberg, KS 06882510: Flow=1960cfs,Stage=15.40ft,Floodstage=35ft,2016-05-26 23:30,25-75,BIG BLUE R AT MARYSVILLE, KS 06882000: Flow=1470cfs,Stage=6.15ft,Floodstage=20ft,2016-05-26 23:00,25-75,Big Blue River at Barneston, Nebr. 06872500: Flow=118cfs,Stage=5.08ft,Floodstage=15ft,2016-05-26 23:30,25-75,NF SOLOMON R AT PORTIS, KS 06871000: Flow=19cfs,Stage=3.50ft,Floodstage=11ft,2016-05-26 23:30,25-75,NF SOLOMON R AT GLADE, KS 06868200: Flow=17cfs,Stage=3.16ft,2016-05-26 23:45,25-75,SALINE R AT WILSON DAM, KS 06866500: Flow=397cfs,Stage=5.85ft,Floodstage=20ft,2016-05-26 23:45,25-75,SMOKY HILL R NR MENTOR, KS 06864000: Flow=79cfs,Stage=4.34ft,Floodstage=18ft,2016-05-26 23:30,25-75,SMOKY HILL R NR RUSSELL, KS 06863500: Flow=14cfs,Stage=5.11ft,Floodstage=26ft,2016-05-26 23:30,25-75,BIG C NR HAYS, KS 06862850: Flow=11cfs,Stage=2.69ft,Floodstage=11ft,2016-05-26 23:00,25-75,SMOKY HILL R BL SCHOENCHEN, KS 06862700: Flow=19cfs,Stage=4.28ft,2016-05-26 23:30,25-75,SMOKY HILL R NR SCHOENCHEN, KS 06861000: Flow=9.7cfs,Stage=1.49ft,Floodstage=7ft,2016-05-26 23:30,25-75,SMOKY HILL R NR ARNOLD, KS 06854500: Flow=653cfs,Stage=2.50ft,Floodstage=10ft,2016-05-26 23:15,25-75,REPUBLICAN R AT SCANDIA, KS 06853500: Flow=440cfs,Stage=3.50ft,Floodstage=11ft,2016-05-26 23:30,25-75,REPUBLICAN R NR HARDY, NE 06852500: Flow=36cfs,Stage=0.76ft,2016-05-26 23:15,25-75,Courtland Canal at Nebraska-Kansas Stateline 06848500: Flow=2.4cfs,Stage=1.77ft,Floodstage=21ft,2016-05-26 23:30,25-75,PRAIRIE DOG C NR WOODRUFF, KS 06847900: Flow=7.1cfs,Stage=3.71ft,Floodstage=11ft,2016-05-26 23:45,25-75,PRAIRIE DOG C AB KEITH SEBELIUS LAKE, KS 06827500: Flow=22cfs,Stage=1.81ft,Floodstage=9ft,2016-05-26 22:30,25-75,South Fork Republican River near Benkelman, Nebr. 385608094380300: Flow=17cfs,2013-07-10 23:45,Not ranked,INDIAN C AT INDIAN C PKWY, OVERLAND PARK, KS 385520094420000: Flow=15cfs,2013-07-17 23:45,Not ranked,INDIAN C AT COLLEGE BLVD, JOHNSON CO, KS 385446094430700: Flow=0.44cfs,2013-07-17 23:45,Not ranked,INDIAN C AT 119TH ST, OVERLAND PARK, KS 375350097262800: Stage=9.57ft,2016-05-26 23:00,Not ranked,L ARKANSAS R UPSTREAM OF ASR FAC NR SEDGWICK, KS 07187600: Flow=10300cfs,Stage=6.63ft,Floodstage=14ft,2016-05-26 23:30,Not ranked,SPRING R NR BAXTER SPRINGS, KS 07186055: Flow=330cfs,Stage=7.21ft,2016-05-26 23:45,Not ranked,COW C NR SCAMMON, KS 07185090: Flow=6.1cfs,Stage=8.53ft,2016-05-26 23:15,Not ranked,Tar Creek near Commerce, OK 07184500: Flow=28cfs,Stage=6.13ft,2016-05-26 23:00,Not ranked,LABETTE C NR OSWEGO, KS 07183300: Stage=15.55ft,Floodstage=29ft,2016-05-26 23:15,Not ranked,NEOSHO R NR ERIE, KS 07182395: Stage=17.20ft,2016-05-26 23:15,Not ranked,NEOSHO R AT HARTFORD, KS 07182390: Flow=3790cfs,Stage=8.83ft,Floodstage=22ft,2016-05-26 23:30,Not ranked,NEOSHO R AT NEOSHO RAPIDS, KS 07182260: Flow=3480cfs,Stage=9.07ft,Floodstage=20ft,2016-05-26 23:30,Not ranked,COTTONWOOD R AT EMPORIA, KS 07182200: Flow=6440cfs,Stage=21.39ft,2016-05-26 23:30,Not ranked,SF COTTONWOOD R NR BAZAAR, KS 07180200: Stage=7.86ft,2016-05-26 23:30,Not ranked,COTTONWOOD R AT MARION, KS 07179750: Flow=3200cfs,Stage=10.75ft,2016-05-26 23:45,Not ranked,NEOSHO R AT BURLINGAME RD NR EMPORIA, KS 07179710: Stage=18.83ft,2016-05-26 23:00,Not ranked,NEOSHO R NR DUNLAP, KS 07179700: Flow=2980cfs,Stage=19.42ft,2016-05-26 23:15,Not ranked,ROCK C NR DUNLAP, KS 07179300: Flow=2680cfs,Stage=16.36ft,2016-05-26 23:45,Not ranked,NEOSHO R NR PARKERVILLE, KS 07170990: Flow=7300cfs,Stage=10.51ft,2016-05-26 23:45,Not ranked,VERDIGRIS R AT COFFEYVILLE, KS 07170700: Stage=3.60ft,2016-05-26 23:00,Not ranked,BIG HILL C NR CHERRYVALE, KS 07165750: Flow=582cfs,Stage=9.63ft,2016-05-27 00:00,Not ranked,VERDIGRIS R NR VIRGIL, KS 07157940: Flow=29cfs,Stage=6.23ft,2016-05-26 23:00,Not ranked,BLUFF C NR BUTTERMILK, KS 07157740: Flow=51cfs,Stage=8.40ft,2016-05-26 23:30,Not ranked,CIMARRON R NR BUTTERMILK, KS 07148111: Flow=1830cfs,Stage=8.33ft,2016-05-26 23:30,Not ranked,GROUSE C NR SILVERDALE, KS 07147900: Stage=17.21ft,Floodstage=18ft,2016-05-26 23:45,Not ranked,WALNUT R AT ARKANSAS CITY, KS 07146800: Flow=248cfs,Stage=7.69ft,Floodstage=21ft,2016-05-26 23:00,Not ranked,WB WALNUT R NR EL DORADO, KS 07145600: Flow=11100cfs,Stage=13.85ft,Floodstage=17ft,2016-05-26 23:45,Not ranked,ARKANSAS R ON HWY 160 AT OXFORD, KS 07144795: Flow=0.43cfs,Stage=1.23ft,2015-11-12 10:00,Not ranked,NF NINNESCAH R AT CHENEY DAM, KS 07144790: Stage=1423.15ft,2016-05-26 23:00,Not ranked,CHENEY RE NR CHENEY, KS 07144570: Flow=4940cfs,Stage=10.35ft,Floodstage=16.5ft,2016-05-26 23:15,Not ranked,ARKANSAS R AT MULVANE, KS 07144490: Flow=356cfs,Stage=12.02ft,2016-05-26 23:15,Not ranked,COWSKIN C AT KELLOGG ST, WICHITA, KS 07144486: Flow=66cfs,Stage=7.15ft,2016-05-27 00:00,Not ranked,CALFSKIN C AT 119TH ST, WICHITA, KS 07144480: Flow=178cfs,Stage=11.28ft,Floodstage=18ft,2016-05-26 23:30,Not ranked,COWSKIN C AT 119TH ST AT WICHITA, KS 07144470: Stage=13.35ft,2016-05-26 23:15,Not ranked,COWSKIN C AT 29TH ST NORTH OF WICHITA, KS 07144301: Flow=0.00cfs,Stage=6.48ft,2016-05-26 23:45,Not ranked,FLOODWAY AT ARKANSAS R AT WICHITA, KS 07144201: Flow=0.00cfs,2016-05-26 23:00,Not ranked,FLOODWAY AT L ARKANSAS R AT VALLEY CENTER, KS 07144100: Flow=971cfs,Stage=6.86ft,Floodstage=22ft,2016-05-26 23:15,Not ranked,L ARKANSAS R NR SEDGWICK, KS 07144050: Flow=115cfs,Stage=0.91ft,Floodstage=19ft,2016-05-26 23:15,Not ranked,EMMA C AT SEDGWICK, KS 07143672: Flow=496cfs,Stage=9.37ft,Floodstage=25ft,2016-05-26 23:30,Not ranked,L ARKANSAS R AT HWY 50 NR HALSTEAD, KS 07143375: Flow=1170cfs,Stage=7.23ft,2016-05-26 23:15,Not ranked,ARKANSAS R NR MAIZE, KS 07143310: Stage=2.33ft,Floodstage=9.5ft,2016-05-26 23:15,Not ranked,COW C NR HUTCHINSON, KS 07142680: Flow=191cfs,Stage=10.00ft,2016-05-26 23:00,Not ranked,ARKANSAS R NR NICKERSON, KS 07142020: Flow=3.4cfs,2010-09-29 23:45,Not ranked,WALNUT C BLW CHEYENNE BTMS DV NR GREAT BEND, KS 07142019: Flow=28cfs,Stage=2.53ft,2016-05-26 23:00,Not ranked,CHEYENNE BOTTOMS DV NR GREAT BEND, KS 07141220: Flow=32cfs,Stage=4.50ft,2016-05-27 00:00,Not ranked,ARKANSAS R NR LARNED, KS 07141000: Flow=5.6cfs,Stage=3.27ft,2016-05-26 23:45,Not ranked,BUCKNER C AT HANSTON, KS 07140900: Flow=19cfs,Stage=3.95ft,2016-05-26 23:15,Not ranked,BUCKNER C NR JETMORE, KS 07140890: Flow=3.5cfs,Stage=3.12ft,2016-05-26 23:45,Not ranked,BUCKNER C BL HORSETHIEF RE NR JETMORE, KS 07140880: Stage=4.50ft,2016-05-26 23:15:00,Not ranked,BUCKNER C AB HORSETHIEF RE NR JETMORE, KS 07140850: Flow=0.00cfs,Stage=2.19ft,Floodstage=30ft,2016-05-26 23:00,Not ranked,PAWNEE R NR BURDETT, KS 07139500: Stage=6.00ft,Floodstage=11ft,2016-05-26 23:00,Not ranked,ARKANSAS R AT DODGE CITY, KS 07139000: Flow=0.00cfs,Stage=5.22ft,Floodstage=10ft,2016-05-26 23:30,Not ranked,ARKANSAS R AT GARDEN CITY, KS 07138075: Flow=31cfs,Stage=2.80ft,2016-05-26 23:00,Not ranked,FARMERS DITCH NR DEERFIELD, KS 07138070: Flow=55cfs,Stage=7.02ft,Floodstage=14ft,2016-05-26 23:45,Not ranked,ARKANSAS R AT DEERFIELD, KS 07138064: Flow=0.00cfs,Stage=1.96ft,2016-05-26 23:15,Not ranked,SOUTHSIDE DITCH RETURN NR DEERFIELD, KS 07138063: Flow=4.0cfs,2015-10-23 23:45,Stage=1.29ft,2016-05-26 23:00:00,Not ranked,SOUTHSIDE DITCH NR LAKIN, KS 07138050: Stage=2.17ft,2016-05-26 23:00:00,Not ranked,Equipment malfunction,AMAZON GREAT EASTERN DITCH NR LAKIN, KS 07138020: Flow=115cfs,Stage=6.12ft,2016-05-26 23:45,Not ranked,ARKANSAS R AT KENDALL, KS 07137010: Flow=0.00cfs,Stage=1.83ft,2016-05-26 23:45,Not ranked,FRONTIER DITCH RETURN NR COOLIDGE, KS 07134990: Flow=13cfs,Stage=3.25ft,2016-05-26 22:15,Not ranked,WILD HORSE CREEK ABOVE HOLLY, CO 06917630: Flow=1.9cfs,Stage=1.85ft,2016-05-26 23:15,Not ranked,East Drywood Creek at Prairie State Park 06917560: Flow=425cfs,Stage=5.66ft,Floodstage=25ft,2016-05-26 23:15,Not ranked,Marmaton River near Richards, MO 06917525: Stage=8.36ft,2016-05-26 23:15,Not ranked,MARMATON R AUX NR FT SCOTT, KS 06917380: Flow=194cfs,2008-11-12 23:45,Not ranked,MARMATON R NR MARMATON, KS 06917240: Flow=17cfs,Stage=0.09ft,2016-05-26 23:00,Not ranked,MARMATON R NR UNIONTOWN, KS 06914995: Stage=918.27ft,2016-05-26 23:30,Not ranked,HILLSDALE LK NR HILLSDALE, KS 06914990: Stage=6.99ft,2016-05-26 23:30:00,Not ranked,L BULL C NR SPRING HILL, KS 06914950: Flow=989cfs,Stage=7.41ft,2016-05-26 23:45,Not ranked,BIG BULL C NR EDGERTON, KS 06914500: Flow=1250cfs,Stage=7.77ft,Floodstage=23ft,2016-05-26 23:30,Not ranked,POTTAWATOMIE C AT LANE, KS 06914100: Flow=463cfs,Stage=6.23ft,Floodstage=23ft,2016-05-26 23:45,Not ranked,POTTAWATOMIE C NR SCIPIO, KS 06912490: Stage=978.73ft,2016-05-26 23:45,Not ranked,POMONA LK NR QUENEMO, KS 06911490: Flow=2770cfs,Stage=6.90ft,Floodstage=10ft,2016-05-27 00:00,Not ranked,SALT C AT LYNDON, KS 06910997: Stage=1037.81ft,2016-05-26 23:30,Not ranked,MELVERN LK NR MELVERN, KS 06893578: Flow=4320cfs,Stage=16.07ft,Floodstage=33ft,2016-05-26 23:30,Not ranked,Blue River at Stadium Drive in Kansas City, MO 06893562: Stage=7.33ft,2016-05-26 23:45,Not ranked,Brush Creek at Rockhill Road in Kansas City, MO 06893557: Flow=1100cfs,Stage=41.00ft,Floodstage=47ft,2016-05-26 23:15,Not ranked,Brush Creek at Ward Parkway in Kansas City, MO 06893400: Stage=88.01ft,2016-05-26 23:30,Not ranked,Indian Creek at 103rd St in Kansas City, MO 06893390: Flow=4450cfs,Stage=17.68ft,Floodstage=20ft,2016-05-26 23:30,Not ranked,INDIAN C AT STATE LINE RD, LEAWOOD, KS 06893350: Flow=1650cfs,Stage=8.45ft,2016-05-26 23:15,Not ranked,TOMAHAWK C NR OVERLAND PARK, KS 06893150: Flow=700cfs,Stage=26.82ft,Floodstage=35ft,2016-05-27 00:00,Not ranked,Blue River at Blue Ridge Blvd Ext in KC, MO 06893100: Flow=561cfs,Stage=7.46ft,2016-05-26 23:30,Not ranked,BLUE R AT KENNETH RD, OVERLAND PARK, KS 06893080: Not ranked,Equipment malfunction,BLUE R NR STANLEY, KS 06892950: Stage=27.13ft,Floodstage=33ft,2016-05-26 23:45,Not ranked,KANSAS R AT KANSAS CITY, KS 06892518: Flow=33400cfs,Stage=14.54ft,2016-05-26 23:45,Not ranked,KANSAS R NR LAKE QUIVIRA, KS 06892513: Flow=4530cfs,Stage=58.76ft,2016-05-26 23:30,Not ranked,MILL C AT JOHNSON DRIVE, SHAWNEE, KS 06892495: Flow=2650cfs,Stage=62.33ft,2016-05-26 23:45,Not ranked,CEDAR C NR DESOTO, KS 06892494: Stage=8.44ft,2016-05-27 00:00,Not ranked,CAMP C AT 95TH ST NR DESOTO, KS 06892493: Stage=81.26ft,2016-05-26 23:00,Not ranked,CEDAR C AT 95TH ST NR DESOTO, KS 06892360: Flow=3600cfs,Stage=17.78ft,2016-05-26 23:30,Not ranked,KILL C AT 95TH ST NR DESOTO, KS 06891850: Flow=7620cfs,Stage=20.25ft,2016-05-26 23:30,Not ranked,STRANGER C AT EASTON, KS 06891810: Flow=199cfs,2015-06-09 23:45,Not ranked,STRANGER C NR POTTER, KS 06891478: Stage=880.31ft,2016-05-26 23:00,Not ranked,CLINTON LK NR LAWRENCE, KS 06891260: Flow=4630cfs,Stage=17.22ft,2016-05-26 23:30,Not ranked,WAKARUSA R NR RICHLAND, KS 06891200: Stage=13.45ft,Floodstage=15ft,2016-05-26 23:15,Not ranked,WAKARUSA R AT WAKARUSA, KS 06891080: Flow=34600cfs,Stage=0.56ft,Floodstage=18ft,2016-05-26 23:45,Not ranked,KANSAS R AT LAWRENCE, KS 06890898: Stage=898.27ft,2016-05-26 23:30,Not ranked,PERRY LK NR PERRY, KS 06889630: Flow=1590cfs,Stage=11.38ft,Floodstage=24ft,2016-05-26 23:15,Not ranked,SHUNGANUNGA C AT TOPEKA, KS 06889585: Stage=9.84ft,Floodstage=15ft,2016-05-27 00:00,Not ranked,SHUNGANUNGA C AT GAGE BLVD, TOPEKA, KS 06888990: Flow=19200cfs,Stage=9.52ft,2016-05-26 23:30,Not ranked,KANSAS R AT TOPEKA WATER PLANT, KS 06888700: Stage=18.44ft,Floodstage=25ft,2016-05-26 23:30,Not ranked,CROSS C AT ROSSVILLE, KS 06887500: Flow=19400cfs,Stage=10.55ft,Floodstage=19ft,2016-05-26 23:30,Not ranked,KANSAS R AT WAMEGO, KS 06886900: Stage=1084.29ft,2016-05-26 23:00,Not ranked,TUTTLE C LK NR MANHATTAN, KS 06884700: Stage=20.94ft,Floodstage=26ft,2016-05-26 23:15,Not ranked,BIG BLUE R AT BLUE RAPIDS, KS 06879820: Stage=11.08ft,Floodstage=18ft,2016-05-26 23:00,Not ranked,KANSAS R AT MANHATTAN, KS 06879815: Stage=5.68ft,2016-05-27 00:00,Not ranked,WILDCAT C AT SETH CHILDS RD, MANHATTAN, KS 06879810: Flow=224cfs,Stage=4.42ft,Floodstage=14ft,2016-05-26 23:15,Not ranked,WILDCAT C AT SCENIC DRIVE, MANHATTAN, KS 06879805: Stage=8.31ft,2016-05-26 23:00,Not ranked,WILDCAT C AT KEATS, KS 06878600: Flow=1380cfs,Stage=12.36ft,Floodstage=21ft,2016-05-26 23:15,Not ranked,LYON C NR JUNCTION CITY, KS 06876440: Flow=4540cfs,Stage=19.62ft,Floodstage=26ft,2016-05-26 23:15,Not ranked,SOLOMON R NR MINNEAPOLIS, KS 06876070: Stage=10.67ft,2016-05-26 23:15,Not ranked,SOLOMON R NR SIMPSON, KS 06870200: Stage=9.84ft,Floodstage=27ft,2016-05-26 23:45,Not ranked,SMOKY HILL R AT NEW CAMBRIA, KS 06869950: Flow=238cfs,Stage=5.13ft,Floodstage=24ft,2016-05-26 23:00,Not ranked,MULBERRY C NR SALINA, KS 06868850: Flow=1770cfs,Stage=25.44ft,Floodstage=30ft,2016-05-26 23:45,Not ranked,SALINE R AT LINCOLN, KS 06868100: Stage=1507.94ft,2016-05-26 23:30,Not ranked,WILSON LK NR WILSON, KS 06867500: Flow=198cfs,Stage=11.24ft,2016-05-26 23:30,Not ranked,PARADISE C NR PARADISE, KS 06865000: Stage=1468.50ft,2016-05-26 23:30,Not ranked,KANOPOLIS LK NR KANOPOLIS, KS 06864050: Flow=58cfs,2011-06-08 23:45,Not ranked,SMOKY HILL R NR BUNKER HILL, KS 06863420: Flow=4.8cfs,Stage=1.86ft,2016-05-26 23:15,Not ranked,BIG C NR ELLIS, KS 06863000: Flow=17cfs,Stage=2.32ft,2016-05-27 00:00,Not ranked,SMOKY HILL R AT PFEIFER, KS 06861500: Stage=2120.27ft,2016-05-26 23:15,Not ranked,CEDAR BLUFF RE NR ELLIS, KS 06860900: Flow=0.00cfs,Stage=6.98ft,2016-05-26 23:30,Not ranked,HACKBERRY C NR TREGO CENTER, KS 06857050: Stage=1149.90ft,2016-05-26 23:30,Not ranked,MILFORD LK NR JUNCTION CITY, KS 06855850: Flow=447cfs,Stage=8.55ft,2016-05-26 23:15,Not ranked,BUFFALO C 4 MI E OF JAMESTOWN, KS 06854000: Stage=3.30ft,2016-05-26 23:45,Not ranked,WHITE ROCK C AT LOVEWELL, KS 06853020: Flow=190cfs,Stage=5.00ft,Floodstage=11ft,2016-05-26 23:30,Not ranked,Republican River at Guide Rock, Nebr. 06846500: Flow=0.00cfs,Stage=2.92ft,Floodstage=16ft,2016-05-26 23:00,Not ranked,BEAVER C AT CEDAR BLUFFS, KS 06845110: Flow=4.2cfs,Stage=5.38ft,Floodstage=17ft,2016-05-26 23:30,Not ranked,SAPPA C NR LYLE, KS 06827000: Flow=15cfs,Stage=3.97ft,2016-05-26 23:45,Not ranked,SF REPUBLICAN R NR CO-KS ST LINE, KS 06820475: Stage=15.80ft,2016-05-26 23:00,Not ranked,MISSOURI R AT LEAVENWORTH, KS Go to WaterWatch (offsite) for a larger map with additional options
USGS Home Water Resources Biology Geography Geology Geospatial

Accessibility FOIA Privacy Policies and Notices

Take Pride in America logo USA.gov logo U.S. Department of the Interior | U.S. Geological Survey
Page Contact Information: GS-W-KS_info@usgs.gov
Page Last Modified: 2016-04-29 09:36:12 CDT